Location: Sollberg
(42.7389°N, 93.6369°W)
Time: 03:43:56
(UTC+00:00)

ACS3 Solar Sail - Pass Details

Date: 14 October 2024
Orbit: 961 x 1023 km, 97.5° (Epoch: 02 November)

Event Time Altitude Azimuth Distance (km) Brightness Sun altitude
Exits shadow 03:41:02 18° 266° (W) 2,286 4.0 -44.0°
Maximum altitude 03:41:36 19° 272° (W) 2,276 4.0 -44.1°
Drops below altitude 10° 03:45:54 10° 315° (NW) 2,849 4.8 -44.7°
Sets 03:49:21 0° 333° (NNW) 3,806 5.6 -45.2°
